Weather History for Kansas City International, MO

Change the Weather History Date:

Sunday, October 6, 2013

  Actual Average Record
Temperature  
Mean Temperature 51 °F 60 °F  
Max Temperature 59 °F 71 °F 95 °F (1963)
Min Temperature 42 °F 49 °F 31 °F (1991)
Degree Days  
Heating Degree Days 14 7  
Month to date heating degree days 26 36  
Since 1 July heating degree days 45 103  
Cooling Degree Days 0 1  
Month to date cooling degree days 27 11  
Year to date cooling degree days 1344 1343  
Moisture  
Dew Point 38 °F    
Average Humidity 69    
Maximum Humidity 86    
Minimum Humidity 51    
Precipitation  
Precipitation T in 0.12 in 3.01 in (1941)
Month to date precipitation 2.05 0.74  
Year to date precipitation 29.56 32.76  
Snow  
Snow 0.00 in 0.00 in T in (1891)
Month to date snowfall 0.0 0.0  
Since 1 July snowfall 0.0 0.0  
Since 1 September snowfall 0.0 0.0  
Snow Depth 0.00 in    
Sea Level Pressure  
Sea Level Pressure 29.90 in    
Wind  
Wind Speed 11 mph (WNW)    
Max Wind Speed 22 mph    
Max Gust Speed 30 mph    
Visibility 10 miles    
Events Rain    
T = Trace of Precipitation, MM = Missing Value Source: NWS Daily Summary

Daily Weather History Graph

Daily Weather History Graph

Search for Another Location

Airport:

Trip Planner

Search our weather history database for the weather conditions in past years. The results will help you decide how hot, cold, wet, or windy it might be!

Date:

Astronomy

Oct. 06, 2013 Rise Set
Actual Time 7:20 AM CDT 6:53 PM CDT
Civil Twilight 6:53 AM CDT 7:19 PM CDT
Nautical Twilight 6:22 AM CDT 7:50 PM CDT
Astronomical Twilight 5:51 AM CDT 8:22 PM CDT
Moon 9:04 AM CDT (10/6) 7:54 PM CDT (10/6)
Length of Visible Light 12h 26m
Length of Day
11h 33m
Waxing Crescent, 3% of the Moon is Illuminated
Oct 6
Waxing Crescent
Oct 11
First Quarter
Oct 18
Full
Oct 26
Last Quarter
Nov 3
New

Hourly Weather History & Observations

Time (CDT) Temp. Windchill Dew Point Humidity Pressure Visibility Wind Dir Wind Speed Gust Speed Precip Events Conditions
12:53 AM 45.0 °F 40.6 °F 33.1 °F 63% 29.89 in 10.0 mi West 8.1 mph - N/A   Clear
1:53 AM 45.0 °F 40.1 °F 33.1 °F 63% 29.89 in 10.0 mi West 9.2 mph - N/A   Clear
2:53 AM 43.0 °F 38.2 °F 33.1 °F 68% 29.87 in 10.0 mi WSW 8.1 mph 17.3 mph N/A   Clear
3:53 AM 44.1 °F 39.0 °F 34.0 °F 68% 29.84 in 10.0 mi West 9.2 mph - N/A   Mostly Cloudy
4:53 AM 44.1 °F 39.0 °F 34.0 °F 68% 29.85 in 10.0 mi West 9.2 mph - N/A   Scattered Clouds
5:53 AM 46.9 °F - 34.0 °F 61% 29.84 in 10.0 mi WNW 13.8 mph - N/A   Overcast
6:53 AM 46.0 °F 40.6 °F 35.1 °F 66% 29.86 in 10.0 mi West 11.5 mph - N/A   Mostly Cloudy
7:23 AM 46.4 °F 41.1 °F 35.6 °F 66% 29.86 in 10.0 mi West 11.5 mph - N/A   Overcast
7:53 AM 46.0 °F 40.6 °F 36.0 °F 68% 29.87 in 10.0 mi West 11.5 mph - N/A   Mostly Cloudy
8:51 AM 46.4 °F 41.1 °F 37.4 °F 71% 29.87 in 10.0 mi WNW 11.5 mph - N/A   Scattered Clouds
8:53 AM 48.0 °F - 37.0 °F 66% 29.88 in 10.0 mi WNW 11.5 mph - N/A   Scattered Clouds
9:53 AM 50.0 °F - 37.0 °F 61% 29.88 in 10.0 mi WNW 13.8 mph 27.6 mph N/A   Mostly Cloudy
10:22 AM 50.0 °F - 37.4 °F 62% 29.90 in 10.0 mi WNW 13.8 mph 24.2 mph N/A   Mostly Cloudy
10:53 AM 51.1 °F - 37.0 °F 59% 29.91 in 10.0 mi NW 16.1 mph 24.2 mph N/A   Mostly Cloudy
11:53 AM 55.0 °F - 39.0 °F 55% 29.91 in 10.0 mi WNW 11.5 mph 20.7 mph N/A   Mostly Cloudy
12:53 PM 57.0 °F - 39.0 °F 51% 29.91 in 10.0 mi West 18.4 mph 26.5 mph N/A   Mostly Cloudy
1:53 PM 55.0 °F - 39.0 °F 55% 29.90 in 10.0 mi West 13.8 mph 21.9 mph N/A   Mostly Cloudy
2:53 PM 57.0 °F - 39.9 °F 53% 29.88 in 10.0 mi West 11.5 mph 23.0 mph N/A   Mostly Cloudy
3:53 PM 57.9 °F - 39.9 °F 51% 29.88 in 10.0 mi West 15.0 mph 24.2 mph N/A   Overcast
4:53 PM 55.9 °F - 42.1 °F 60% 29.90 in 10.0 mi WNW 11.5 mph 20.7 mph 0.00 in Rain Light Rain
5:53 PM 55.0 °F - 41.0 °F 59% 29.92 in 10.0 mi WNW 13.8 mph 21.9 mph N/A   Overcast
6:53 PM 54.0 °F - 41.0 °F 62% 29.95 in 10.0 mi NW 10.4 mph 20.7 mph N/A   Overcast
7:53 PM 53.1 °F - 42.1 °F 66% 29.96 in 10.0 mi NW 13.8 mph 25.3 mph N/A   Overcast
8:53 PM 53.1 °F - 43.0 °F 69% 29.97 in 10.0 mi NW 11.5 mph 20.7 mph N/A   Overcast
9:53 PM 52.0 °F - 43.0 °F 71% 29.99 in 10.0 mi NW 10.4 mph - N/A   Overcast
10:53 PM 48.9 °F - 43.0 °F 80% 30.01 in 10.0 mi West 5.8 mph - N/A   Partly Cloudy
11:53 PM 46.9 °F - 42.1 °F 83% 30.00 in 10.0 mi WNW 3.5 mph - N/A   Clear